Weather in Bel'kachi

Russia / Sakha (Yakutia) Republic     59°11′13″N   131°54′09″E
temp.,
°C
wind,
m/s
gust,
m/s
humid.,
%
clouds,
%
prec.,
mm/h
press.,
hPa
HPBL,
m
18 may, tue
tue1800:00−2sw11945 0.0 100310
03:00−2sse1197100 0.0 100411
06:00+1ese128595 0.0 1005234
09:00+5ese225745 0.1 10041237
12:00+7ese2345100 0.4 10021766
15:00+9s133997 0.8 10012014
18:00+7wnw0257100 0.3 1001464
21:00+2n2791100 0.8 1002224
19 may, wed
wed1900:00+1n2692100 0.0 1002229
03:00−1nnw2394100 0.0 100184
06:00+1nnw3583100 0.0 1002267
09:00+6nnw3454100 0.0 10021003
12:00+8nnw4538100 0.1 10022422
15:00+8nw4447100 0.4 10031658
18:00+6nw3570100 0.9 1005958
21:00+3nw138787 1.4 100777
20 may, thu
thu2000:000s0094100 0.0 100710
03:00−1ene119537 0.0 100610
06:00+2ne2384100 0.0 1005168
09:00+7ene3560100 0.0 1003732
12:00+10ne4534100 0.0 10012374
15:00+10ne4531100 0.0 10012251
18:00+9nnw1246100 0.0 100166
21:00+5ese1273100 0.1 100369
21 may, fri
fri2100:00+3s1189100 0.0 100418
03:00+3sw1288100 0.0 100540
06:00+4wsw2472100 0.0 1007249
09:00+8nw4743100 0.0 1008959
12:00+12nw672842 0.0 10082667
15:00+14nw572497 0.0 10083048
18:00+13wnw46325 0.0 10082589
21:00+7w412593 0.1 1011499
22 may, sat
sat2200:00+3wsw27824 0.0 1012158
03:00+2sw278599 0.0 1013195
06:00+4wsw357199 0.0 1013280
09:00+9wsw354791 0.0 10121360
12:00+12w3433100 0.0 10102419
15:00+13w2231100 0.0 10082296
18:00+12wnw1141100 0.0 1007789
21:00+8ne1148100 0.0 100810